Regional Weather Roundup
Issued by NWS

Home | Current Version | Previous Version | Graphics & Text | Print | Product List | Glossary On
Versions: 1 2 3 4 5 6 7 8 9 10 11 12 13 14 15 16 17 18 19 20 21 22 23 24 25 26 27 28 29 30 31 32 33 34 35 36 37 38 39 40 41 42 43 44 45 46 47 48 49 50
434
ASUS45 KPSR 230610
RWRAZ

ARIZONA HOURLY REGIONAL WEATHER ROUNDUP
NATIONAL WEATHER SERVICE PHOENIX AZ
1100 PM MST WED MAR 22 2017

NOTE: FAIR INDICATES FEW OR NO CLOUDS BELOW 12,000 FEET WITH NO
SIGNIFICANT WEATHER AND/OR OBSTRUCTIONS TO VISIBILITY.

AZZ001>003-036-230700-
NORTHWEST ARIZONA

CITY           SKY/WX    TMP DP  RH WIND       PRES   REMARKS
BULLHEAD CITY  MOCLDY    66  32  28 S16       29.83R
KINGMAN        CLOUDY    48  41  76 E8        29.87F
6HR MIN TEMP:  48; 6HR MAX TEMP:  66; 6HR PCP:  0.24;

$$

AZZ004>008-015-016-018-230700-
NORTH CENTRAL ARIZONA

CITY           SKY/WX    TMP DP  RH WIND       PRES   REMARKS
GRAND CANYON   FLURRIES  34  34 100 CALM      29.93F
6HR MIN TEMP:  33; 6HR MAX TEMP:  47; 6HR PCP:  0.62;

WILLIAMS       LGT SNOW  32  32 100 S8        29.94F WCI  25
PRESCOTT       LGT RAIN  39  38  96 S8        29.92F FOG     WCI  33
6HR MIN TEMP:  39; 6HR MAX TEMP:  59; 6HR PCP:  0.26;

FLAGSTAFF      LGT SNOW  33  32  96 W6        29.94R FOG     WCI  28
6HR MIN TEMP:  33; 6HR MAX TEMP:  48; 6HR PCP:  0.31;

PAYSON         CLOUDY    52  45  76 W7        29.95R
PAGE           LGT RAIN  47  50 100 VRB5      29.87R
6HR MIN TEMP:  46; 6HR MAX TEMP:  64; 6HR PCP:  0.04;

$$

AZZ009>014-017-230700-
NORTHEAST ARIZONA

CITY           SKY/WX    TMP DP  RH WIND       PRES   REMARKS
WINSLOW        PTCLDY    49  41  74 W14       29.90R
6HR MIN TEMP:  50; 6HR MAX TEMP:  71;

SAINT JOHNS    CLEAR     52  25  35 S10       29.91F
6HR MIN TEMP:  50; 6HR MAX TEMP:  73;

WINDOW ROCK    CLEAR     51  23  33 S9        29.94F
6HR MIN TEMP:  50; 6HR MAX TEMP:  64;

SHOW LOW       CLEAR     48  27  43 S8G16     29.97F
$$

AZZ023-230700-
GREATER PHOENIX AREA

CITY           SKY/WX    TMP DP  RH WIND       PRES   REMARKS
PHOENIX        MOCLDY    63  41  44 NW15      29.85F
6HR MIN TEMP:  63; 6HR MAX TEMP:  80;

BUCKEYE        CLOUDY    63  45  51 W7        29.89R
LUKE AFB       PTCLDY    61  45  56 NW6       29.85S
6HR MIN TEMP:  60; 6HR MAX TEMP:  80; 6HR PCP: TRACE;

DEER VALLEY    PTCLDY    60  44  55 NW8       29.85S
6HR MIN TEMP:  60; 6HR MAX TEMP:  77; 6HR PCP: TRACE;

SCOTTSDALE     CLEAR     62  43  49 VRB6      29.87S
6HR MIN TEMP:  62; 6HR MAX TEMP:  78;

MESA-GATEWAY   PTCLDY    63  43  48 W12       29.88S
$$

AZZ027-028-230700-
SOUTHWEST MARICOPA COUNTY AND PINAL COUNTY

CITY           SKY/WX    TMP DP  RH WIND       PRES   REMARKS
CASA GRANDE    NOT AVBL
GILA BEND      PTCLDY    62  45  54 S3        29.86F
6HR MIN TEMP:  62; 6HR MAX TEMP:  81; 6HR PCP: TRACE;

$$

AZZ503-504-507>509-230700-
SOUTHEAST ARIZONA

CITY           SKY/WX    TMP DP  RH WIND       PRES   REMARKS
TUCSON         CLEAR     69  40  34 W16       29.92R
6HR MIN TEMP:  68; 6HR MAX TEMP:  84;

DAVIS-MONTHAN  CLEAR     67  40  37 SW5       29.92R
6HR MIN TEMP:  67; 6HR MAX TEMP:  83;

NOGALES        CLEAR     60  42  51 SE7       30.00S
6HR MIN TEMP:  60; 6HR MAX TEMP:  79;

SIERRA VISTA   CLEAR     62  36  38 SW22G30   29.98R
6HR MIN TEMP:  62; 6HR MAX TEMP:  76;

DOUGLAS        CLEAR     59  23  25 S7        29.96F
6HR MIN TEMP:  58; 6HR MAX TEMP:  82;

SAFFORD        CLEAR     66  23  19 W9        29.85S
6HR MIN TEMP:  65; 6HR MAX TEMP:  83;

$$

AZZ020-021-025-026-031-230700-
SOUTHWEST ARIZONA

CITY           SKY/WX    TMP DP  RH WIND       PRES   REMARKS
YUMA           CLOUDY    60  39  45 W16G23    29.88S
6HR MIN TEMP:  60; 6HR MAX TEMP:  67; 6HR PCP:  0.04;

$$

CAZ031-033-041-043-047-048-061-230700-
SOUTHERN CALIFORNIA

CITY           SKY/WX    TMP DP  RH WIND       PRES   REMARKS
DOWNTOWN L.A.  CLEAR     58  51  78 CALM      29.98R
6HR MIN TEMP:  57; 6HR MAX TEMP:  65;

L.A. AIRPORT   PTCLDY    57  50  77 W12       29.99S
6HR MIN TEMP:  57; 6HR MAX TEMP:  63;

SAN DIEGO      MOCLDY    60  52  74 W10       30.05S
6HR MIN TEMP:  60; 6HR MAX TEMP:  65; 6HR PCP:  0.03;

BURBANK        CLEAR     54  45  71 N3        29.97S
6HR MIN TEMP:  54; 6HR MAX TEMP:  67;

ONTARIO        MOCLDY    55  49  80 W9        29.98S
6HR MIN TEMP:  55; 6HR MAX TEMP:  65;

RIVERSIDE      PTCLDY    54  49  83 W10       29.99S
6HR MIN TEMP:  54; 6HR MAX TEMP:  66;

PALM SPRINGS   PTCLDY    64  38  38 E8        29.90S
6HR MIN TEMP:  63; 6HR MAX TEMP:  75;

EL CENTRO NAS  PTCLDY    60  36  40 W15       29.92F
6HR MIN TEMP:  60; 6HR MAX TEMP:  71; 6HR PCP: TRACE;

IMPERIAL       CLEAR     58  42  55 W12       29.90S
6HR MIN TEMP:  58; 6HR MAX TEMP:  71;

BLYTHE         PTCLDY    63  42  46 N7        29.84R
6HR MIN TEMP:  63; 6HR MAX TEMP:  73; 6HR PCP: TRACE;

NEEDLES        CLOUDY    66  34  30 NW10      29.85R
6HR MIN TEMP:  66; 6HR MAX TEMP:  74; 6HR PCP: TRACE;

$$

NVZ020-UTZ003-230700-
SOUTHERN NEVADA-UTAH

CITY           SKY/WX    TMP DP  RH WIND       PRES   REMARKS
LAS VEGAS      MOCLDY    58  24  27 SW15G29   29.77R
6HR MIN TEMP:  58; 6HR MAX TEMP:  70;

SALT LAKE CITY LGT RAIN  50  44  80 VRB7      29.73R
6HR MIN TEMP:  50; 6HR MAX TEMP:  57; 6HR PCP: TRACE;

$$

NMZ009-TXZ055-230700-
NEW MEXICO-WEST TEXAS

CITY           SKY/WX    TMP DP  RH WIND       PRES   REMARKS
ALBUQUERQUE    CLOUDY    64  14  14 S9        29.92F
6HR MIN TEMP:  63; 6HR MAX TEMP:  80;

EL PASO        PTCLDY    76  12   8 SW13G21   29.94S
6HR MIN TEMP:  76; 6HR MAX TEMP:  90;

$$


........................KEY........................
SKY/WX - SKY CONDITION/WEATHER
TMP    - TEMPERATURE IN FAHRENHEIT
DP     - DEW POINT IN FAHRENHEIT
RH     - RELATIVE HUMIDITY IN PERCENT
WIND   - DIRECTION AND SPEED IN MILES PER HOUR (MPH)
VRB    - VARIABLE WIND DIRECTION
PRES   - MEAN SEA LEVEL PRESSURE IN INCHES OF MERCURY
         F - FALLING PRESSURE   R - RISING PRESSURE
         S - STEADY PRESSURE
VSB    - VISIBILITY IN MILES
HX     - HEAT INDEX IN FAHRENHEIT
WCI    - WIND CHILL INDEX IN FAHRENHEIT
TC     - TEMPERATURE IN CELSIUS WHICH IS ALSO KNOWN AS
         TEMPERATURE IN CENTIGRADE
AFB    - AIR FORCE BASE
         LUKE AFB IS LUKE AIR FORCE BASE
         DAVIS-MONTHAN IS DAVIS-MONTHAN AIR FORCE BASE
NAS    - NAVAL AIR STATION
         EL CENTRO NAS IS EL CENTRO NAVAL AIR STATION
N/A    - NOT AVAILABLE





USA.gov is the U.S. government's official web portal to all federal, state and local government web resources and services.